CELTEE 1

Last updated on Sun Apr 12 2026 00:03:55 GMT+0000 (Coordinated Universal Time)

1 41850U 16067C 26101.55756542 .00005239 00000+0 25374-3 0 9999 2 41850 98.0772 323.5800 0002383 98.3275 261.8228 15.19042330515765
UTC large
Height (km)
Speed (km/s)
/
Latitude / Longitude
Inclination (degrees)
Orbital Period (minutes)
Azimuth
Elevation
Range (km)
Doppler Factor

Next 0 passes for location: London (51.5072 / 0.1276)

Sorry there are no passes over London.
CELTEE 1